Location: Ferchesar
(52.6477°N, 12.4298°E)
Time: 13:33:57
(UTC+01:00)

Altair - Pass Details

Date: 09 December 2021
Orbit: 1501 x 1683 km, 47.2° (Epoch: 27 January)

Event Time Altitude Azimuth Distance (km) Brightness Sun altitude
Rises 16:18:10 0° 251° (WSW) 4,783 12.0 -3.6°
Reaches altitude 10° 16:21:19 10° 249° (WSW) 3,774 11.3 -4.0°
Maximum altitude 16:30:38 62° 172° (S) 1,697 7.9 -5.2°
Drops below altitude 10° 16:39:40 10° 94° (E) 3,666 9.0 -6.4°
Enters shadow 16:42:29 - 92° (E) 4,570 9.5 -6.7°
